Zurück zum Katalog

STARLINK-3127

AktivKommunikationVLEO
NORAD 49450·PAYLOAD·🇺🇸 United States

Gestartet Nov 13, 2021 von Cape Canaveral Space Force Station

Loading…

Nächste Überflüge (nächste 24 Stunden)

TLE

AktuellSource: CelesTrak SupGP

Epoche: Sep 15, 2026, 01:38 UTC

1 49450C 21104AU  26258.06854167 -.00020951  00000+0 -61910-3 0  2586
2 49450  53.1596  77.4455 0001152  79.0405  96.9074 15.34395977    18

Verfolge STARLINK-3127 in Echtzeit mit AllMySat

Download on the App Store